Weather History for Pecos, TX

Change the Weather History Date:

Monday, August 19, 2013

  Actual Average Record
Temperature  
Mean Temperature 82 °F -  
Max Temperature 103 °F 98 °F 109 °F (1978)
Min Temperature 62 °F 67 °F 60 °F (1950)
Cooling Degree Days 17    
Growing Degree Days 32 (Base 50)    
Moisture  
Dew Point 51 °F    
Average Humidity 39    
Maximum Humidity 75    
Minimum Humidity 15    
Precipitation  
Precipitation 0.00 in - - ()
Sea Level Pressure  
Sea Level Pressure 30.00 in    
Wind  
Wind Speed 5 mph (ESE)    
Max Wind Speed 18 mph    
Max Gust Speed 26 mph    
Visibility 10 miles    
Events      
Averages and records for this station are not official NWS values.
T = Trace of Precipitation, MM = Missing Value Source: NWS Daily Summary

Daily Weather History Graph

Daily Weather History Graph

Search for Another Location

Airport:

Trip Planner

Search our weather history database for the weather conditions in past years. The results will help you decide how hot, cold, wet, or windy it might be!

Date:

Astronomy

Aug. 19, 2013 Rise Set
Actual Time 7:22 AM CDT 8:32 PM CDT
Civil Twilight 6:56 AM CDT 8:57 PM CDT
Nautical Twilight 6:26 AM CDT 9:27 PM CDT
Astronomical Twilight 5:55 AM CDT 9:58 PM CDT
Moon 7:25 PM CDT (8/19) 5:46 AM CDT (8/19)
Length of Visible Light 14h 00m
Length of Day
13h 10m
Waxing Gibbous, 97% of the Moon is Illuminated
Aug 19
Waxing Gibbous
Aug 20
Full
Aug 28
Last Quarter
Sep 5
New
Sep 12
First Quarter

Hourly Weather History & Observations

Time (CDT) Temp. Heat Index Dew Point Humidity Pressure Visibility Wind Dir Wind Speed Gust Speed Precip Events Conditions
12:15 AM 75.2 °F - 52.2 °F 44% 30.04 in 10.0 mi SE 4.6 mph - N/A   Clear
12:35 AM 75.2 °F - 51.8 °F 44% 30.04 in 10.0 mi SE 3.5 mph - N/A   Clear
12:55 AM 75.0 °F - 51.8 °F 44% 30.04 in 10.0 mi SE 4.6 mph - N/A   Clear
1:15 AM 74.8 °F - 52.0 °F 45% 30.04 in 10.0 mi Calm Calm - N/A   Clear
1:35 AM 72.3 °F - 51.8 °F 48% 30.04 in 10.0 mi SSE 3.5 mph - N/A   Clear
1:55 AM 72.0 °F - 51.8 °F 49% 30.03 in 10.0 mi Calm Calm - N/A   Clear
2:15 AM 72.0 °F - 52.3 °F 50% 30.03 in 10.0 mi Calm Calm - N/A   Clear
2:35 AM 69.6 °F - 52.9 °F 55% 30.03 in 10.0 mi West 6.9 mph - N/A   Clear
2:55 AM 69.1 °F - 53.2 °F 57% 30.03 in 10.0 mi WNW 5.8 mph - N/A   Clear
3:15 AM 69.1 °F - 53.6 °F 58% 30.02 in 10.0 mi North 3.5 mph - N/A   Clear
3:35 AM 69.1 °F - 52.7 °F 56% 30.02 in 10.0 mi NE 3.5 mph - N/A   Clear
3:55 AM 67.6 °F - 52.7 °F 59% 30.02 in 10.0 mi ENE 3.5 mph - N/A   Clear
4:15 AM 67.5 °F - 53.6 °F 61% 30.02 in 10.0 mi NE 4.6 mph - N/A   Clear
4:35 AM 67.1 °F - 54.9 °F 65% 30.02 in 10.0 mi NE 4.6 mph - N/A   Clear
4:55 AM 66.4 °F - 55.4 °F 68% 30.02 in 10.0 mi North 3.5 mph - N/A   Clear
5:15 AM 66.2 °F - 54.9 °F 67% 30.01 in 10.0 mi Calm Calm - N/A   Clear
5:35 AM 64.4 °F - 54.3 °F 70% 30.02 in 10.0 mi NNW 3.5 mph - N/A   Clear
5:55 AM 64.4 °F - 54.0 °F 69% 30.02 in 10.0 mi NW 5.8 mph - N/A   Clear
6:15 AM 64.9 °F - 54.3 °F 68% 30.02 in 10.0 mi North 5.8 mph - N/A   Clear
6:35 AM 66.2 °F - 55.6 °F 69% 30.01 in 10.0 mi Calm Calm - N/A   Clear
6:55 AM 64.8 °F - 55.4 °F 72% 30.03 in 10.0 mi Calm Calm - N/A   Clear
7:15 AM 63.3 °F - 54.7 °F 73% 30.03 in 10.0 mi West 3.5 mph - N/A   Clear
7:35 AM 62.6 °F - 54.5 °F 75% 30.03 in 10.0 mi WSW 3.5 mph - N/A   Clear
7:55 AM 63.1 °F - 54.7 °F 74% 30.03 in 10.0 mi SSW 3.5 mph - N/A   Clear
8:15 AM 64.9 °F - 55.4 °F 71% 30.04 in 10.0 mi SW 4.6 mph - N/A   Clear
8:35 AM 66.4 °F - 56.3 °F 70% 30.05 in 10.0 mi NW 3.5 mph - N/A   Clear
8:55 AM 68.7 °F - 57.2 °F 67% 30.05 in 10.0 mi West 4.6 mph - N/A   Clear
9:15 AM 71.2 °F - 57.9 °F 63% 30.05 in 10.0 mi Calm Calm - N/A   Clear
9:35 AM 73.0 °F - 58.6 °F 61% 30.06 in 10.0 mi NW 5.8 mph - N/A   Clear
9:55 AM 75.4 °F - 57.9 °F 54% 30.07 in 10.0 mi Calm Calm - N/A   Clear
10:15 AM 77.4 °F - 57.2 °F 50% 30.06 in 10.0 mi Calm Calm - N/A   Clear
10:35 AM 79.7 °F - 57.2 °F 46% 30.06 in 10.0 mi Calm Calm - N/A   Clear
10:55 AM 82.6 °F 82.0 °F 56.3 °F 40% 30.06 in 10.0 mi ESE 4.6 mph - N/A   Clear
11:15 AM 85.1 °F 83.8 °F 55.6 °F 36% 30.06 in 10.0 mi ESE 3.5 mph - N/A   Clear
11:35 AM 86.7 °F 85.1 °F 55.2 °F 34% 30.06 in 10.0 mi Calm Calm - N/A   Clear
11:55 AM 88.3 °F 86.3 °F 54.1 °F 31% 30.05 in 10.0 mi Calm Calm - N/A   Clear
12:15 PM 90.0 °F 87.7 °F 53.2 °F 29% 30.05 in 10.0 mi East 3.5 mph - N/A   Clear
12:35 PM 92.7 °F 90.4 °F 53.6 °F 27% 30.05 in 10.0 mi Calm Calm - N/A   Clear
12:55 PM 93.6 °F - 52.9 °F 25% 30.04 in 10.0 mi Calm Calm - N/A   Clear
1:15 PM 95.0 °F - 50.7 °F 22% 30.03 in 10.0 mi North 3.5 mph - N/A   Clear
1:35 PM 95.0 °F - 51.1 °F 22% 30.03 in 10.0 mi Calm Calm - N/A   Clear
1:55 PM 96.8 °F - 52.0 °F 22% 30.02 in 10.0 mi ENE 6.9 mph - N/A   Clear
2:15 PM 97.7 °F - 51.8 °F 21% 30.00 in 10.0 mi NW 6.9 mph - N/A   Clear
2:35 PM 97.5 °F - 49.8 °F 20% 30.00 in 10.0 mi Calm Calm - N/A   Clear
2:55 PM 100.8 °F - 48.6 °F 17% 29.98 in 10.0 mi ENE 5.8 mph - N/A   Clear
3:15 PM 101.5 °F - 49.3 °F 17% 29.97 in 10.0 mi South 12.7 mph 26.5 mph N/A   Clear
3:35 PM 102.0 °F - 47.3 °F 16% 29.97 in 10.0 mi East 9.2 mph - N/A   Clear
3:55 PM 101.5 °F - 46.0 °F 15% 29.96 in 10.0 mi East 6.9 mph 16.1 mph N/A   Clear
4:15 PM 102.2 °F - 46.8 °F 15% 29.95 in 10.0 mi ESE 12.7 mph 18.4 mph N/A   Clear
4:35 PM 101.3 °F - 47.3 °F 16% 29.94 in 10.0 mi East 17.3 mph 23.0 mph N/A   Scattered Clouds
4:55 PM 100.2 °F - 46.4 °F 16% 29.93 in 10.0 mi SSE 6.9 mph - N/A   Scattered Clouds
5:15 PM 101.7 °F - 47.7 °F 16% 29.93 in 10.0 mi SE 13.8 mph 19.6 mph N/A   Clear
5:35 PM 100.8 °F - 47.5 °F 16% 29.93 in 10.0 mi SE 10.4 mph 23.0 mph N/A   Clear
5:55 PM 100.4 °F - 47.1 °F 16% 29.93 in 10.0 mi ESE 15.0 mph 24.2 mph N/A   Clear
6:15 PM 99.7 °F - 46.8 °F 17% 29.92 in 10.0 mi ESE 17.3 mph 24.2 mph N/A   Clear
6:35 PM 99.1 °F - 46.8 °F 17% 29.93 in 7.0 mi SE 17.3 mph 26.5 mph N/A   Clear
6:55 PM 98.2 °F - 46.4 °F 17% 29.93 in 10.0 mi ESE 18.4 mph - N/A   Clear
7:15 PM 97.0 °F - 45.7 °F 17% 29.93 in 7.0 mi SE 13.8 mph 23.0 mph N/A   Clear
7:35 PM 95.7 °F - 45.1 °F 18% 29.92 in 7.0 mi SE 13.8 mph 23.0 mph N/A   Clear
7:55 PM 94.3 °F - 44.8 °F 18% 29.93 in 10.0 mi SE 16.1 mph - N/A   Clear
8:15 PM 92.5 °F - 44.4 °F 19% 29.93 in 10.0 mi ESE 13.8 mph 21.9 mph N/A   Clear
8:35 PM 90.7 °F - 44.6 °F 20% 29.93 in 10.0 mi ESE 11.5 mph - N/A   Clear
8:55 PM 89.4 °F - 44.4 °F 21% 29.93 in 10.0 mi ESE 11.5 mph - N/A   Clear
9:15 PM 87.8 °F - 44.1 °F 22% 29.95 in 10.0 mi ESE 9.2 mph - N/A   Clear
9:35 PM 86.5 °F - 44.6 °F 23% 29.95 in 10.0 mi SE 9.2 mph - N/A   Clear
9:55 PM 84.9 °F - 45.1 °F 25% 29.96 in 10.0 mi SE 9.2 mph - N/A   Clear
10:15 PM 83.7 °F - 45.9 °F 27% 29.96 in 10.0 mi SE 8.1 mph - N/A   Clear
10:35 PM 82.8 °F - 46.4 °F 28% 29.97 in 10.0 mi SE 8.1 mph - N/A   Clear
10:55 PM 81.5 °F - 46.8 °F 29% 29.98 in 10.0 mi SE 6.9 mph - N/A   Clear
11:15 PM 79.9 °F - 46.9 °F 31% 29.98 in 10.0 mi SE 6.9 mph - N/A   Clear
11:35 PM 78.3 °F - 46.9 °F 33% 29.99 in 10.0 mi SE 5.8 mph - N/A   Clear
11:55 PM 76.8 °F - 46.9 °F 35% 29.99 in 10.0 mi SE 5.8 mph - N/A   Clear